This is the latest recevied weather packets stored in our database for station/object OE3APM-13. If no packets are shown the sender has not sent any weather packets the latest 10 day(s).
| Time | Temp. | Humidity | Pressure | Rain* | Wind** | Luminosity | Snow |
|---|---|---|---|---|---|---|---|
| 1788414325 | 12.78° C | 86% | 1021.8 hPa | 0 mm | - | 84 W/m² | - |
| 1788414025 | 12.78° C | 86% | 1021.7 hPa | 0 mm | - | 53 W/m² | - |
| 1788413724 | 12.78° C | 86% | 1021.7 hPa | 0 mm | - | 25 W/m² | - |
| 1788413427 | 12.78° C | 86% | 1021.7 hPa | 0 mm | - | 14 W/m² | - |
| 1788413121 | 12.78° C | 86% | 1021.7 hPa | 0 mm | - | 11 W/m² | - |
| 1788412822 | 12.78° C | 86% | 1021.6 hPa | 0 mm | - | 11 W/m² | - |
| 1788412521 | 12.78° C | 86% | 1021.7 hPa | 0 mm | - | 12 W/m² | - |
| 1788412220 | 12.78° C | 86% | 1021.7 hPa | 0 mm | - | 14 W/m² | - |
| 1788411918 | 12.78° C | 86% | 1021.5 hPa | 0 mm | - | 12 W/m² | - |
| 1788411620 | 12.78° C | 87% | 1021.5 hPa | 0 mm | - | 14 W/m² | - |
| 1788411320 | 12.78° C | 87% | 1021.5 hPa | 0 mm | - | 12 W/m² | - |
| 1788411015 | 12.78° C | 87% | 1021.5 hPa | 0 mm | - | 7 W/m² | - |
| 1788410716 | 12.78° C | 87% | 1021.4 hPa | 0 mm | - | 0 W/m² | - |
| 1788410417 | 12.78° C | 87% | 1021.4 hPa | 0 mm | - | 0 W/m² | - |
| 1788410116 | 12.78° C | 88% | 1021.3 hPa | 0 mm | - | 0 W/m² | - |
| 1788409815 | 12.78° C | 88% | 1021.3 hPa | 0 mm | - | 0 W/m² | - |
| 1788409516 | 12.78° C | 88% | 1021.3 hPa | 0 mm | - | 0 W/m² | - |
| 1788409213 | 12.78° C | 88% | 1021.3 hPa | 0 mm | - | 0 W/m² | - |
| 1788408912 | 12.78° C | 88% | 1021.3 hPa | 0 mm | - | 0 W/m² | - |
| 1788408615 | 12.78° C | 89% | 1021.3 hPa | 0 mm | - | 0 W/m² | - |
| 1788408311 | 12.78° C | 89% | 1021.2 hPa | 0 mm | - | 0 W/m² | - |
| 1788408009 | 12.78° C | 88% | 1021.3 hPa | 0 mm | - | 0 W/m² | - |
| 1788407708 | 12.78° C | 88% | 1021.2 hPa | 0 mm | - | 0 W/m² | - |
| 1788407412 | 12.78° C | 88% | 1021.2 hPa | 0 mm | - | 0 W/m² | - |
| 1788407108 | 12.78° C | 88% | 1021.2 hPa | 0 mm | - | 0 W/m² | - |
* Rain latest hour (hover to see other rain measurements)
** Current wind speed in m/s (hover to see current wind gust speed)